Mena, AR

4:39 AM CST on February 25, 2017 (GMT -0600)
Mena

Weather History for KMEZ - February, 2013

Change the Weather History Date:

Monday, February 4, 2013

  Actual Average (KFSM) Record (KFSM)
Temperature  
Mean Temperature 50 °F -  
Max Temperature 57 °F 50 °F 79 °F (2008)
Min Temperature 42 °F 31 °F 2 °F (1886)
Degree Days  
Heating Degree Days 16    
Moisture  
Dew Point 43 °F    
Average Humidity 80    
Maximum Humidity 100    
Minimum Humidity 31    
Precipitation  
Precipitation 0.00 in - - ()
Sea Level Pressure  
Sea Level Pressure 29.94 in    
Wind  
Wind Speed 3 mph (WSW)    
Max Wind Speed 13 mph    
Max Gust Speed 22 mph    
Visibility 8 miles    
Events Fog , Rain    
Averages and records for this station are not official NWS values.
T = Trace of Precipitation, MM = Missing Value Source: NWS Daily Summary

Daily Weather History Graph

Daily Weather History Graph

Search for Another Location

Airport or City:

Trip Planner

Search our weather history database for the weather conditions in past years. The results will help you decide how hot, cold, wet, or windy it might be!

Date:

Astronomy

Feb. 04, 2013 Rise Set
Actual Time 7:12 AM CST 5:49 PM CST
Civil Twilight 6:45 AM CST 6:15 PM CST
Nautical Twilight 6:16 AM CST 6:45 PM CST
Astronomical Twilight 5:46 AM CST 7:15 PM CST
Moon 1:45 AM CST (2/4) 12:17 PM CST (2/4)
Length of Visible Light 11h 30m
Length of Day
10h 37m
Last Quarter, 37% of the Moon is Illuminated
Feb 4
Last Quarter
Feb 10
New
Feb 17
First Quarter
Feb 25
Full
Mar 4
Last Quarter

Hourly Weather History & Observations

Time (CST) Temp. Dew Point Humidity Pressure Visibility Wind Dir Wind Speed Gust Speed Precip Events Conditions
12:15 AM 42.8 °F 32.0 °F 66% 30.04 in 10.0 mi Calm Calm - N/A   Clear
12:35 AM 44.6 °F 32.0 °F 61% 30.04 in 10.0 mi Calm Calm - N/A   Clear
12:55 AM 42.8 °F 32.0 °F 66% 30.03 in 10.0 mi Calm Calm - N/A   Clear
1:15 AM 42.8 °F 32.0 °F 66% 30.03 in 10.0 mi Calm Calm - N/A   Clear
1:35 AM 42.8 °F 33.8 °F 70% 30.02 in 10.0 mi Calm Calm - N/A   Clear
1:55 AM 44.6 °F 32.0 °F 61% 30.01 in 10.0 mi Calm Calm - N/A   Clear
2:15 AM 46.4 °F 32.0 °F 57% 30.00 in 10.0 mi Calm Calm - N/A   Clear
2:35 AM 55.4 °F 26.6 °F 33% 29.99 in 10.0 mi South 6.9 mph - N/A   Clear
2:55 AM 55.4 °F 26.6 °F 33% 29.99 in 10.0 mi Calm Calm - N/A   Clear
3:15 AM 55.4 °F 26.6 °F 33% 29.99 in 10.0 mi Calm Calm - N/A   Scattered Clouds
3:35 AM 57.2 °F 26.6 °F 31% 29.99 in 10.0 mi South 4.6 mph 17.3 mph N/A   Mostly Cloudy
5:15 AM 57.2 °F 28.4 °F 33% 29.96 in 10.0 mi SSW 8.1 mph 19.6 mph N/A   Overcast
5:35 AM 57.2 °F 28.4 °F 33% 29.95 in 10.0 mi South 9.2 mph 18.4 mph N/A   Overcast
5:55 AM 55.4 °F 28.4 °F 36% 29.95 in 10.0 mi South 6.9 mph 19.6 mph N/A   Overcast
6:15 AM 57.2 °F 28.4 °F 33% 29.95 in 10.0 mi SW 10.4 mph - N/A   Overcast
6:35 AM 55.4 °F 28.4 °F 36% 29.97 in 10.0 mi SW 12.7 mph 16.1 mph N/A Rain Rain
7:15 AM 50.0 °F 37.4 °F 62% 29.95 in 10.0 mi SSW 8.1 mph 21.9 mph N/A Rain Light Rain
7:55 AM 48.2 °F 41.0 °F 76% 29.99 in 10.0 mi WSW 5.8 mph - N/A Rain Light Rain
8:15 AM 50.0 °F 41.0 °F 71% 29.98 in 10.0 mi West 4.6 mph - N/A   Drizzle
8:35 AM 50.0 °F 37.4 °F 62% 29.97 in 10.0 mi SSW 5.8 mph - N/A Rain Light Rain
8:55 AM 50.0 °F 39.2 °F 66% 29.98 in 10.0 mi SW 8.1 mph - N/A Rain Rain
9:15 AM 50.0 °F 41.0 °F 71% 29.98 in 10.0 mi SSW 6.9 mph - N/A   Drizzle
9:35 AM 50.0 °F 41.0 °F 71% 29.98 in 10.0 mi SW 3.5 mph - N/A Rain Light Rain
9:55 AM 50.0 °F 41.0 °F 71% 29.98 in 10.0 mi SW 5.8 mph - N/A   Drizzle
10:15 AM 51.8 °F 41.0 °F 67% 29.99 in 10.0 mi West 4.6 mph - N/A   Drizzle
10:35 AM 50.0 °F 42.8 °F 76% 29.99 in 10.0 mi WNW 5.8 mph - N/A Rain Rain
11:15 AM 48.2 °F 46.4 °F 93% 29.97 in 5.0 mi SSE 4.6 mph - N/A Rain Rain
11:35 AM 50.0 °F 42.8 °F 76% 29.95 in 10.0 mi South 3.5 mph - N/A Rain Light Rain
11:55 AM 50.0 °F 42.8 °F 76% 29.95 in 10.0 mi Calm Calm - N/A   Light Drizzle
12:15 PM 50.0 °F 44.6 °F 82% 29.94 in 10.0 mi West 3.5 mph - N/A Rain Light Rain
12:35 PM 50.0 °F 44.6 °F 82% 29.93 in 10.0 mi NW 4.6 mph - N/A   Overcast
12:55 PM 50.0 °F 46.4 °F 87% 29.91 in 10.0 mi NW 5.8 mph - N/A   Light Drizzle
1:15 PM 50.0 °F 46.4 °F 87% 29.91 in 10.0 mi WNW 6.9 mph - N/A   Overcast
1:35 PM 50.0 °F 48.2 °F 94% 29.90 in 10.0 mi WNW 4.6 mph - N/A   Overcast
1:55 PM 50.0 °F 48.2 °F 94% 29.89 in 10.0 mi WNW 5.8 mph - N/A   Overcast
2:15 PM 50.0 °F 50.0 °F 100% 29.88 in 10.0 mi WNW 4.6 mph - N/A   Overcast
2:35 PM 50.0 °F 50.0 °F 100% 29.87 in 10.0 mi NW 5.8 mph - N/A   Overcast
2:55 PM 50.0 °F 50.0 °F 100% 29.87 in 10.0 mi WNW 4.6 mph - N/A   Overcast
3:15 PM 50.0 °F 50.0 °F 100% 29.88 in 10.0 mi WNW 8.1 mph - N/A   Overcast
3:35 PM 50.0 °F 48.2 °F 94% 29.88 in 10.0 mi West 6.9 mph - N/A   Overcast
3:55 PM 50.0 °F 50.0 °F 100% 29.88 in 10.0 mi WNW 8.1 mph - N/A   Overcast
4:15 PM 50.0 °F 48.2 °F 94% 29.89 in 7.0 mi West 8.1 mph - N/A   Overcast
4:35 PM 50.0 °F 48.2 °F 94% 29.89 in 7.0 mi West 6.9 mph - N/A   Overcast
4:55 PM 50.0 °F 50.0 °F 100% 29.89 in 5.0 mi WSW 4.6 mph - N/A   Overcast
5:15 PM 50.0 °F 50.0 °F 100% 29.89 in 5.0 mi WSW 3.5 mph - N/A   Overcast
5:35 PM 50.0 °F 50.0 °F 100% 29.89 in 5.0 mi Calm Calm - N/A   Overcast
5:55 PM 50.0 °F 50.0 °F 100% 29.89 in 7.0 mi Calm Calm - N/A   Overcast
6:15 PM 50.0 °F 50.0 °F 100% 29.89 in 7.0 mi Calm Calm - N/A   Overcast
6:35 PM 50.0 °F 50.0 °F 100% 29.90 in 7.0 mi Calm Calm - N/A   Overcast
6:55 PM 50.0 °F 50.0 °F 100% 29.91 in 7.0 mi Calm Calm - N/A   Overcast
7:15 PM 50.0 °F 50.0 °F 100% 29.91 in 7.0 mi Calm Calm - N/A   Overcast
7:35 PM 50.0 °F 50.0 °F 100% 29.91 in 5.0 mi Calm Calm - N/A   Overcast
7:55 PM 50.0 °F 50.0 °F 100% 29.92 in 5.0 mi Calm Calm - N/A   Overcast
8:15 PM 50.0 °F 50.0 °F 100% 29.93 in 5.0 mi Calm Calm - N/A   Overcast
8:35 PM 50.0 °F 50.0 °F 100% 29.93 in 5.0 mi Calm Calm - N/A   Overcast
8:55 PM 50.0 °F 50.0 °F 100% 29.93 in 5.0 mi Calm Calm - N/A   Overcast
9:15 PM 50.0 °F 50.0 °F 100% 29.94 in 4.0 mi Calm Calm - N/A   Overcast
9:35 PM 50.0 °F 50.0 °F 100% 29.94 in 1.2 mi Calm Calm - N/A   Overcast
9:55 PM 50.0 °F 50.0 °F 100% 29.94 in 0.2 mi Calm Calm - N/A Fog Fog
10:15 PM 50.0 °F 50.0 °F 100% 29.95 in 0.2 mi Calm Calm - N/A Fog Fog
10:35 PM 48.2 °F 48.2 °F 100% 29.95 in 0.2 mi Calm Calm - N/A Fog Fog
10:55 PM 48.2 °F 48.2 °F 100% 29.95 in 0.2 mi Calm Calm - N/A Fog Fog
11:15 PM 48.2 °F 48.2 °F 100% 29.95 in 0.2 mi Calm Calm - N/A Fog Fog
11:55 PM 48.2 °F 48.2 °F 100% 29.96 in 0.2 mi Calm Calm - N/A Fog Fog